Home   Weather   Flensburg   Past weeks

Flag for Germany Past Weather in Flensburg, Schleswig-Holstein, Germany — Yesterday and Last 2 Weeks

Now
41 °F

Quite cool.


Feels Like: 36 °F
Forecast: 35 / 53 °F
Wind: 7 mph from East

Location: Soenderborg Lufthavn

Current Time: Apr 30, 2017 at 1:35:30 am

Latest Report: Apr 30, 2017 at 1:20 am


Visibility: N/A

Pressure: 30.12 "Hg

Humidity: 93%

Dew Point: 39 °F

Location of FlensburgLocation

Past Weather in Flensburg — Graph

°F

Flensburg Temperature Yesterday

Maximum temperature yesterday: 50 °F (at 4:20 pm)
Minimum temperature yesterday: 37 °F (at 12:20 am)
Average temperature yesterday: 43 °F

High & Low Weather Summary for the Past Weeks

 TemperatureHumidityPressure
High52 °F (Apr 21, 12:20 pm)100% (Apr 26, 3:20 am)30.63 "Hg (Apr 26, 3:20 am)
Low32 °F (Apr 25, 3:20 am)37% (Apr 19, 6:50 pm)29.56 "Hg (Apr 25, 5:50 am)
Average43 °F76%30.00 "Hg
* Reported Apr 15 12:20 am — Apr 30 12:20 am, Flensburg, Weather by CustomWeather, © 2017

Note: Actual official high and low records may vary slightly from our data, if they occured in-between our weather recording intervals... More about our weather records

Advertising

Flensburg Weather History for the Previous 24 Hours

Scroll right to see more
 ConditionsComfort  
Time TempWeatherWind HumidityBarometerVisibility
12:20 am
Sun, Apr 30
41 °FQuite cool.6 mph93%30.12 "HgN/A
11:50 pm
Sat, Apr 29
43 °FPassing clouds.6 mph87%30.12 "HgN/A
11:20 pm43 °FPassing clouds.6 mph87%30.12 "HgN/A
10:50 pm43 °FQuite cool.6 mph87%30.12 "HgN/A
10:20 pm43 °FQuite cool.5 mph87%30.12 "HgN/A
9:50 pm45 °FPassing clouds.5 mph81%30.09 "HgN/A
9:20 pm45 °FPassing clouds.7 mph76%30.09 "HgN/A
8:50 pm46 °FBroken clouds.7 mph76%30.09 "HgN/A
8:20 pm46 °FCool.6 mph76%30.09 "HgN/A
7:50 pm46 °FScattered clouds.6 mph71%30.09 "HgN/A
7:20 pm48 °FPassing clouds.8 mph66%30.07 "HgN/A
6:50 pm48 °FPassing clouds.5 mph66%30.07 "HgN/A
6:20 pm48 °FCool.6 mph62%30.07 "HgN/A
5:50 pm48 °FScattered clouds.5 mph62%30.07 "HgN/A
5:20 pm48 °FPassing clouds.6 mph62%30.07 "HgN/A
4:50 pm48 °FScattered clouds.5 mph66%30.07 "HgN/A
4:20 pm50 °FScattered clouds.3 mph58%30.04 "HgN/A
3:50 pm48 °FScattered clouds.5 mph71%30.04 "HgN/A
3:20 pm48 °FScattered clouds.2 mph71%30.04 "HgN/A
2:50 pm48 °FPartly sunny.5 mph66%30.04 "HgN/A
2:20 pm46 °FPartly sunny.3 mph76%30.04 "HgN/A
1:50 pm46 °FBroken clouds.3 mph71%30.01 "HgN/A
1:20 pm45 °FBroken clouds.5 mph76%30.01 "HgN/A
12:50 pm45 °FBroken clouds.7 mph81%30.01 "HgN/A
12:20 pm45 °FBroken clouds.8 mph76%30.01 "HgN/A
11:50 am43 °FBroken clouds.6 mph81%29.98 "HgN/A
11:20 am43 °FBroken clouds.9 mph81%29.98 "HgN/A
10:50 am43 °FPartly sunny.7 mph87%29.98 "HgN/A
10:20 am43 °FBroken clouds.6 mph87%29.98 "HgN/A
9:50 am41 °FBroken clouds.3 mph93%29.95 "HgN/A
9:20 am41 °FBroken clouds.2 mph93%29.95 "HgN/A
8:50 am39 °FLight rain. Broken clouds.3 mph100%29.95 "HgN/A
8:20 am39 °FLight rain. Broken clouds.5 mph93%29.92 "Hg5 mi
7:52 am39 °FBroken clouds.5 mph93%29.92 "HgN/A
7:20 am39 °FLight rain. Broken clouds.6 mph93%29.92 "HgN/A
6:50 am39 °FLight rain. Broken clouds.2 mph93%29.92 "HgN/A
6:20 am39 °FSprinkles. Partly sunny.2 mph93%29.92 "HgN/A
5:50 am39 °FLight rain. Partly sunny.2 mph93%29.92 "HgN/A
5:20 am37 °FLight rain. Passing clouds.3 mph100%29.92 "HgN/A
4:50 am39 °FRain. Passing clouds.6 mph87%29.92 "HgN/A
4:20 am39 °FLight rain. Passing clouds.6 mph87%29.92 "HgN/A
3:50 am37 °FPassing clouds.3 mph93%29.92 "HgN/A
3:20 am37 °FPassing clouds.6 mph87%29.92 "HgN/A
2:50 am37 °FPassing clouds.6 mph87%29.92 "HgN/A
2:20 am37 °FPartly cloudy.5 mph87%29.92 "HgN/A
1:50 am37 °FChilly.6 mph87%29.92 "HgN/A
1:20 am37 °FChilly.6 mph87%29.92 "HgN/A
Weather by CustomWeather, © 2017

See weather overviewHow to use our weather pages